Time,TemperatureF,DewpointF,PressureIn,WindDirection,WindDirectionDegrees,WindSpeedMPH,WindSpeedGustMPH,Humidity,HourlyPrecipIn,Conditions,Clouds,dailyrainin,SoftwareType,DateUTC
2013-09-21 00:01:00,68.0,61.4,30.02,ESE,113,0.0,0.0,79,0.00,,,0.00,WUHU216HW,2013-09-21 04:01:00,
2013-09-21 00:03:00,67.9,61.2,30.02,SE,135,0.0,0.0,79,0.00,,,0.00,WUHU216HW,2013-09-21 04:03:00,
2013-09-21 00:08:00,67.9,61.2,30.02,SSE,158,0.0,0.0,79,0.00,,,0.00,WUHU216HW,2013-09-21 04:08:00,
2013-09-21 00:13:00,67.9,61.2,30.02,SSE,158,0.0,0.0,79,0.00,,,0.00,WUHU216HW,2013-09-21 04:13:00,
2013-09-21 00:18:00,67.9,61.2,30.01,WSW,248,0.0,0.0,79,0.00,,,0.00,WUHU216HW,2013-09-21 04:18:00,
2013-09-21 00:23:00,67.7,61.4,30.01,WSW,248,0.0,0.7,80,0.00,,,0.00,WUHU216HW,2013-09-21 04:23:00,
2013-09-21 00:28:00,67.5,61.2,30.01,SSE,158,1.1,1.1,80,0.00,,,0.00,WUHU216HW,2013-09-21 04:28:00,
2013-09-21 00:33:00,67.5,61.2,30.01,South,180,0.9,1.1,80,0.00,,,0.00,WUHU216HW,2013-09-21 04:33:00,
2013-09-21 00:38:00,67.5,61.2,30.02,South,180,1.1,1.1,80,0.00,,,0.00,WUHU216HW,2013-09-21 04:38:00,
2013-09-21 00:44:00,67.5,61.2,30.02,South,180,0.9,1.1,80,0.00,,,0.00,WUHU216HW,2013-09-21 04:44:00,
2013-09-21 00:49:00,67.5,61.6,30.01,SSW,203,0.9,0.9,81,0.00,,,0.00,WUHU216HW,2013-09-21 04:49:00,
2013-09-21 00:54:00,67.5,61.6,30.01,WSW,248,0.9,0.9,81,0.00,,,0.00,WUHU216HW,2013-09-21 04:54:00,
2013-09-21 00:59:00,67.5,61.6,30.01,WSW,248,1.1,1.1,81,0.00,,,0.00,WUHU216HW,2013-09-21 04:59:00,
2013-09-21 01:04:00,67.5,61.6,30.01,SW,225,0.4,1.1,81,0.00,,,0.00,WUHU216HW,2013-09-21 05:04:00,
2013-09-21 01:09:00,67.5,61.6,30.01,WSW,248,0.4,1.1,81,0.00,,,0.00,WUHU216HW,2013-09-21 05:09:00,
2013-09-21 01:14:00,67.5,61.6,30.01,SSW,210,0.5,1.1,81,0.00,,,0.00,WUHU216HW,2013-09-21 05:14:00,
2013-09-21 01:19:00,67.3,61.4,30.01,South,189,0.7,1.1,81,0.00,,,0.00,WUHU216HW,2013-09-21 05:19:00,
2013-09-21 01:24:00,67.3,61.4,30.01,SSE,158,1.8,1.8,81,0.00,,,0.00,WUHU216HW,2013-09-21 05:24:00,
2013-09-21 01:29:00,67.3,61.4,30.00,SSE,158,1.1,1.8,81,0.00,,,0.00,WUHU216HW,2013-09-21 05:29:00,
2013-09-21 01:34:00,67.3,61.4,30.01,South,180,1.1,1.8,81,0.00,,,0.00,WUHU216HW,2013-09-21 05:34:00,
2013-09-21 01:40:00,67.3,61.7,30.01,SW,224,0.7,1.1,82,0.00,,,0.00,WUHU216HW,2013-09-21 05:40:00,
2013-09-21 01:45:00,67.3,61.7,30.00,SW,225,0.6,1.1,82,0.00,,,0.00,WUHU216HW,2013-09-21 05:45:00,
2013-09-21 01:50:00,67.3,61.7,30.00,SW,225,0.4,0.9,82,0.00,,,0.00,WUHU216HW,2013-09-21 05:50:00,
2013-09-21 01:55:00,67.1,61.5,30.00,SW,225,1.1,1.1,82,0.00,,,0.00,WUHU216HW,2013-09-21 05:55:00,
2013-09-21 02:00:00,67.3,61.7,30.00,SW,225,0.0,1.1,82,0.00,,,0.00,WUHU216HW,2013-09-21 06:00:00,
2013-09-21 02:05:00,67.3,61.7,30.00,South,184,0.3,0.4,82,0.00,,,0.00,WUHU216HW,2013-09-21 06:05:00,
2013-09-21 02:10:00,67.3,61.7,30.00,SSW,203,0.2,0.4,82,0.00,,,0.00,WUHU216HW,2013-09-21 06:10:00,
2013-09-21 02:15:00,67.3,61.7,30.00,WSW,248,0.7,0.7,82,0.00,,,0.00,WUHU216HW,2013-09-21 06:15:00,
2013-09-21 02:20:00,67.3,61.7,30.00,SSW,203,0.0,0.7,82,0.00,,,0.00,WUHU216HW,2013-09-21 06:20:00,
2013-09-21 02:25:00,67.3,61.7,30.00,WSW,248,0.0,0.7,82,0.00,,,0.00,WUHU216HW,2013-09-21 06:25:00,
2013-09-21 02:30:00,67.1,61.5,29.99,SW,225,0.0,0.0,82,0.00,,,0.00,WUHU216HW,2013-09-21 06:30:00,
2013-09-21 02:35:00,67.3,62.0,29.99,WSW,248,0.2,0.2,83,0.00,,,0.00,WUHU216HW,2013-09-21 06:35:00,
2013-09-21 02:41:00,67.1,61.8,29.99,SSE,158,0.7,0.9,83,0.00,,,0.00,WUHU216HW,2013-09-21 06:41:00,
2013-09-21 02:46:00,67.0,61.7,29.99,South,180,2.3,2.5,83,0.00,,,0.00,WUHU216HW,2013-09-21 06:46:00,
2013-09-21 02:51:00,67.0,61.7,29.99,SSE,168,1.0,2.5,83,0.00,,,0.00,WUHU216HW,2013-09-21 06:51:00,
2013-09-21 02:56:00,66.8,61.5,29.99,SW,225,1.6,1.6,83,0.00,,,0.00,WUHU216HW,2013-09-21 06:56:00,
2013-09-21 03:01:00,66.6,61.3,29.99,SSW,203,0.4,1.6,83,0.00,,,0.00,WUHU216HW,2013-09-21 07:01:00,
2013-09-21 03:06:00,66.6,61.6,29.98,WSW,248,0.9,1.6,84,0.00,,,0.00,WUHU216HW,2013-09-21 07:06:00,
2013-09-21 03:11:00,66.6,61.6,29.98,WSW,248,1.1,1.3,84,0.00,,,0.00,WUHU216HW,2013-09-21 07:11:00,
2013-09-21 03:16:00,66.6,61.6,29.98,SW,225,1.8,1.8,84,0.00,,,0.00,WUHU216HW,2013-09-21 07:16:00,
2013-09-21 03:21:00,66.6,61.6,29.98,SW,225,0.4,1.8,84,0.00,,,0.00,WUHU216HW,2013-09-21 07:21:00,
2013-09-21 03:26:00,66.6,61.6,29.98,WSW,248,1.1,1.8,84,0.00,,,0.00,WUHU216HW,2013-09-21 07:26:00,
2013-09-21 03:31:00,66.6,61.6,29.98,South,180,0.4,1.8,84,0.00,,,0.00,WUHU216HW,2013-09-21 07:31:00,
2013-09-21 03:36:00,66.4,61.4,29.98,South,180,1.3,1.3,84,0.00,,,0.00,WUHU216HW,2013-09-21 07:36:00,
2013-09-21 03:42:00,66.4,61.4,29.98,SW,225,1.1,1.3,84,0.00,,,0.00,WUHU216HW,2013-09-21 07:42:00,
2013-09-21 03:47:00,66.4,61.4,29.98,SSW,203,0.7,2.0,84,0.00,,,0.00,WUHU216HW,2013-09-21 07:47:00,
2013-09-21 03:52:00,66.4,61.4,29.98,SSW,203,0.7,2.0,84,0.00,,,0.00,WUHU216HW,2013-09-21 07:52:00,
2013-09-21 03:57:00,66.4,61.7,29.98,SW,225,1.3,1.8,85,0.00,,,0.00,WUHU216HW,2013-09-21 07:57:00,
2013-09-21 04:02:00,66.4,61.7,29.98,South,180,2.0,2.0,85,0.00,,,0.00,WUHU216HW,2013-09-21 08:02:00,
2013-09-21 04:07:00,66.6,61.9,29.98,SSE,158,0.0,2.0,85,0.00,,,0.00,WUHU216HW,2013-09-21 08:07:00,
2013-09-21 04:12:00,66.4,61.7,29.97,SSW,203,0.0,0.0,85,0.00,,,0.00,WUHU216HW,2013-09-21 08:12:00,
2013-09-21 04:17:00,66.2,61.6,29.97,South,180,0.0,0.0,85,0.00,,,0.00,WUHU216HW,2013-09-21 08:17:00,
2013-09-21 04:22:00,66.1,61.4,29.97,SSE,158,0.0,0.0,85,0.00,,,0.00,WUHU216HW,2013-09-21 08:22:00,
2013-09-21 04:27:00,66.1,61.4,29.96,South,180,0.0,0.0,85,0.00,,,0.00,WUHU216HW,2013-09-21 08:27:00,
2013-09-21 04:32:00,65.9,61.2,29.96,SSE,158,0.0,0.0,85,0.00,,,0.00,WUHU216HW,2013-09-21 08:32:00,
2013-09-21 04:37:00,65.9,61.2,29.97,SW,225,0.0,0.0,85,0.00,,,0.00,WUHU216HW,2013-09-21 08:37:00,
2013-09-21 04:42:00,65.7,61.4,29.96,South,180,0.0,0.0,86,0.00,,,0.00,WUHU216HW,2013-09-21 08:42:00,
2013-09-21 04:47:00,65.7,61.4,29.96,SSW,203,0.0,0.0,86,0.00,,,0.00,WUHU216HW,2013-09-21 08:47:00,
2013-09-21 04:53:00,65.5,61.2,29.96,SSW,203,0.0,0.0,86,0.00,,,0.00,WUHU216HW,2013-09-21 08:53:00,
2013-09-21 04:58:00,65.5,61.2,29.96,SSW,203,0.0,0.0,86,0.00,,,0.00,WUHU216HW,2013-09-21 08:58:00,
2013-09-21 05:03:00,65.5,61.2,29.96,SSW,203,0.0,0.0,86,0.00,,,0.00,WUHU216HW,2013-09-21 09:03:00,
2013-09-21 05:08:00,65.5,61.2,29.96,SSW,203,0.0,0.0,86,0.00,,,0.00,WUHU216HW,2013-09-21 09:08:00,
2013-09-21 05:13:00,65.5,61.2,29.95,SSW,203,0.0,0.0,86,0.00,,,0.00,WUHU216HW,2013-09-21 09:13:00,
2013-09-21 05:18:00,65.3,61.0,29.95,SW,225,0.0,0.0,86,0.00,,,0.00,WUHU216HW,2013-09-21 09:18:00,
2013-09-21 05:23:00,65.2,60.8,29.95,SSW,203,0.0,0.0,86,0.00,,,0.00,WUHU216HW,2013-09-21 09:23:00,
2013-09-21 05:28:00,65.2,61.2,29.95,SSE,158,0.0,0.0,87,0.00,,,0.00,WUHU216HW,2013-09-21 09:28:00,
2013-09-21 05:33:00,65.2,60.8,29.95,SSE,158,0.0,0.0,86,0.00,,,0.00,WUHU216HW,2013-09-21 09:33:00,
2013-09-21 05:38:00,65.0,60.7,29.95,South,180,0.0,0.0,86,0.00,,,0.00,WUHU216HW,2013-09-21 09:38:00,
2013-09-21 05:43:00,65.0,60.7,29.95,South,180,0.0,0.0,86,0.00,,,0.00,WUHU216HW,2013-09-21 09:43:00,
2013-09-21 05:48:00,64.8,60.6,29.95,SSW,203,0.0,0.0,86,0.00,,,0.00,WUHU216HW,2013-09-21 09:48:00,
2013-09-21 05:53:00,64.6,60.4,29.95,SW,225,0.0,0.0,86,0.00,,,0.00,WUHU216HW,2013-09-21 09:53:00,
2013-09-21 05:58:00,64.6,60.7,29.94,SW,225,0.0,0.0,87,0.00,,,0.00,WUHU216HW,2013-09-21 09:58:00,
2013-09-21 06:04:00,64.6,60.7,29.94,South,180,0.0,0.0,87,0.00,,,0.00,WUHU216HW,2013-09-21 10:04:00,
2013-09-21 06:09:00,64.4,60.6,29.94,SSW,203,0.0,0.0,87,0.00,,,0.00,WUHU216HW,2013-09-21 10:09:00,
2013-09-21 06:14:00,64.4,60.6,29.94,WSW,248,0.0,0.0,87,0.00,,,0.00,WUHU216HW,2013-09-21 10:14:00,
2013-09-21 06:19:00,64.4,60.6,29.94,South,180,0.0,0.0,87,0.00,,,0.00,WUHU216HW,2013-09-21 10:19:00,
2013-09-21 06:24:00,64.3,60.4,29.94,South,180,0.0,0.0,87,0.00,,,0.00,WUHU216HW,2013-09-21 10:24:00,
2013-09-21 06:29:00,64.3,60.4,29.94,South,180,0.0,0.0,87,0.00,,,0.00,WUHU216HW,2013-09-21 10:29:00,
2013-09-21 06:34:00,64.1,60.2,29.94,South,180,0.0,0.0,87,0.00,,,0.00,WUHU216HW,2013-09-21 10:34:00,
2013-09-21 06:39:00,63.9,60.0,29.94,SSW,203,0.0,0.0,87,0.00,,,0.00,WUHU216HW,2013-09-21 10:39:00,
2013-09-21 06:44:00,63.7,59.9,29.94,SSE,158,0.0,0.0,87,0.00,,,0.00,WUHU216HW,2013-09-21 10:44:00,
2013-09-21 06:49:00,63.7,59.9,29.94,SW,225,0.0,0.0,87,0.00,,,0.00,WUHU216HW,2013-09-21 10:49:00,
2013-09-21 06:54:00,63.9,60.3,29.95,WSW,248,0.0,0.0,88,0.00,,,0.00,WUHU216HW,2013-09-21 10:54:00,
2013-09-21 06:59:00,64.1,60.5,29.95,WSW,248,0.0,0.0,88,0.00,,,0.00,WUHU216HW,2013-09-21 10:59:00,
2013-09-21 07:04:00,64.1,60.5,29.95,South,180,0.0,0.0,88,0.00,,,0.00,WUHU216HW,2013-09-21 11:04:00,
2013-09-21 07:09:00,64.1,60.5,29.95,SSW,203,0.0,0.0,88,0.00,,,0.00,WUHU216HW,2013-09-21 11:09:00,
2013-09-21 07:15:00,64.1,60.5,29.95,SW,225,0.0,0.0,88,0.00,,,0.00,WUHU216HW,2013-09-21 11:15:00,
2013-09-21 07:20:00,64.3,60.7,29.95,South,180,0.0,0.0,88,0.00,,,0.00,WUHU216HW,2013-09-21 11:20:00,
2013-09-21 07:25:00,64.3,60.7,29.96,NW,315,0.0,0.0,88,0.00,,,0.00,WUHU216HW,2013-09-21 11:25:00,
2013-09-21 07:30:00,64.6,61.4,29.95,SW,225,0.0,0.0,89,0.00,,,0.00,WUHU216HW,2013-09-21 11:30:00,
2013-09-21 07:35:00,64.8,61.6,29.96,SW,220,4.0,5.1,89,0.00,,,0.00,WUHU216HW,2013-09-21 11:35:00,
2013-09-21 07:40:00,65.2,61.8,29.96,SW,214,2.9,5.1,89,0.00,,,0.00,WUHU216HW,2013-09-21 11:40:00,
2013-09-21 07:45:00,65.3,62.0,29.96,SW,225,1.6,3.4,89,0.00,,,0.00,WUHU216HW,2013-09-21 11:45:00,
2013-09-21 07:50:00,65.7,62.4,29.96,South,188,2.3,3.4,89,0.00,,,0.00,WUHU216HW,2013-09-21 11:50:00,
2013-09-21 07:55:00,65.9,62.8,29.96,SW,225,5.4,5.4,90,0.00,,,0.00,WUHU216HW,2013-09-21 11:55:00,
2013-09-21 08:00:00,66.2,63.2,29.96,WSW,248,2.2,5.4,90,0.00,,,0.00,WUHU216HW,2013-09-21 12:00:00,
2013-09-21 08:05:00,66.6,63.5,29.96,SW,225,3.4,5.8,90,0.00,,,0.00,WUHU216HW,2013-09-21 12:05:00,
2013-09-21 08:10:00,67.0,63.5,29.96,WSW,248,2.0,5.8,89,0.00,,,0.00,WUHU216HW,2013-09-21 12:10:00,
2013-09-21 08:15:00,67.3,63.9,29.96,WSW,248,5.6,5.8,89,0.00,,,0.00,WUHU216HW,2013-09-21 12:15:00,
2013-09-21 08:21:00,67.3,63.9,29.96,SSW,203,1.6,5.8,89,0.00,,,0.00,WUHU216HW,2013-09-21 12:21:00,
2013-09-21 08:26:00,67.5,64.1,29.96,WSW,248,1.8,3.6,89,0.00,,,0.00,WUHU216HW,2013-09-21 12:26:00,
2013-09-21 08:31:00,67.9,64.2,29.96,SW,225,4.5,5.8,88,0.00,,,0.00,WUHU216HW,2013-09-21 12:31:00,
2013-09-21 08:36:00,68.0,64.4,29.96,SW,225,1.3,5.8,88,0.00,,,0.00,WUHU216HW,2013-09-21 12:36:00,
2013-09-21 08:41:00,68.0,64.4,29.96,SSE,158,5.4,5.4,88,0.00,,,0.00,WUHU216HW,2013-09-21 12:41:00,
2013-09-21 08:46:00,68.6,64.9,29.96,SW,225,5.1,5.4,88,0.00,,,0.00,WUHU216HW,2013-09-21 12:46:00,
2013-09-21 08:51:00,68.8,65.1,29.96,WSW,248,4.9,5.4,88,0.00,,,0.00,WUHU216HW,2013-09-21 12:51:00,
2013-09-21 08:56:00,68.9,65.3,29.96,SW,225,2.7,5.1,88,0.00,,,0.00,WUHU216HW,2013-09-21 12:56:00,
2013-09-21 09:01:00,68.9,64.9,29.96,SSE,160,3.5,5.8,87,0.00,,,0.00,WUHU216HW,2013-09-21 13:01:00,
2013-09-21 09:06:00,68.9,64.9,29.96,WSW,248,4.3,5.8,87,0.00,,,0.00,WUHU216HW,2013-09-21 13:06:00,
2013-09-21 09:11:00,69.1,65.1,29.95,WSW,248,4.0,4.3,87,0.00,,,0.00,WUHU216HW,2013-09-21 13:11:00,
2013-09-21 09:16:00,69.3,65.3,29.96,SW,220,4.0,4.7,87,0.00,,,0.00,WUHU216HW,2013-09-21 13:16:00,
2013-09-21 09:21:00,69.5,65.4,29.96,WSW,248,1.8,4.7,87,0.00,,,0.00,WUHU216HW,2013-09-21 13:21:00,
2013-09-21 09:26:00,69.5,65.4,29.96,West,270,2.5,2.5,87,0.00,,,0.00,WUHU216HW,2013-09-21 13:26:00,
2013-09-21 09:31:00,69.5,65.1,29.96,WSW,248,2.0,6.5,86,0.00,,,0.00,WUHU216HW,2013-09-21 13:31:00,
2013-09-21 09:36:00,69.7,65.3,29.96,SW,225,3.6,6.5,86,0.00,,,0.00,WUHU216HW,2013-09-21 13:36:00,
2013-09-21 09:42:00,69.8,65.4,29.96,SW,230,2.3,3.6,86,0.00,,,0.00,WUHU216HW,2013-09-21 13:42:00,
2013-09-21 09:47:00,70.0,65.6,29.96,SW,227,1.5,3.6,86,0.00,,,0.00,WUHU216HW,2013-09-21 13:47:00,
2013-09-21 09:52:00,70.2,65.8,29.96,SW,227,3.4,5.4,86,0.00,,,0.00,WUHU216HW,2013-09-21 13:52:00,
2013-09-21 09:57:00,70.7,66.0,29.95,SSW,209,2.1,5.4,85,0.00,,,0.00,WUHU216HW,2013-09-21 13:57:00,
2013-09-21 10:02:00,70.9,66.2,29.95,SSW,203,3.6,3.6,85,0.00,,,0.00,WUHU216HW,2013-09-21 14:02:00,
2013-09-21 10:07:00,71.6,66.9,29.95,WSW,248,2.2,3.6,85,0.00,,,0.00,WUHU216HW,2013-09-21 14:07:00,
2013-09-21 10:12:00,71.6,66.5,29.95,SW,225,4.0,4.0,84,0.00,,,0.00,WUHU216HW,2013-09-21 14:12:00,
2013-09-21 10:17:00,71.8,66.7,29.95,WSW,238,3.7,4.7,84,0.00,,,0.00,WUHU216HW,2013-09-21 14:17:00,
2013-09-21 10:22:00,71.8,66.7,29.95,WSW,248,5.1,5.8,84,0.00,,,0.00,WUHU216HW,2013-09-21 14:22:00,
2013-09-21 10:27:00,71.8,66.7,29.95,SW,226,2.4,5.8,84,0.00,,,0.00,WUHU216HW,2013-09-21 14:27:00,
2013-09-21 10:32:00,71.8,66.3,29.95,SW,221,4.1,6.5,83,0.00,,,0.00,WUHU216HW,2013-09-21 14:32:00,
2013-09-21 10:37:00,72.0,66.5,29.94,South,180,2.5,6.5,83,0.00,,,0.00,WUHU216HW,2013-09-21 14:37:00,
2013-09-21 10:42:00,72.5,67.1,29.94,SW,225,3.4,4.3,83,0.00,,,0.00,WUHU216HW,2013-09-21 14:42:00,
2013-09-21 10:48:00,72.7,67.2,29.94,WSW,248,4.0,4.0,83,0.00,,,0.00,WUHU216HW,2013-09-21 14:48:00,
2013-09-21 10:53:00,73.1,67.6,29.94,SW,225,3.8,6.9,83,0.00,,,0.00,WUHU216HW,2013-09-21 14:53:00,
2013-09-21 10:58:00,73.4,68.0,29.94,South,180,3.4,6.9,83,0.00,,,0.00,WUHU216HW,2013-09-21 14:58:00,
2013-09-21 11:03:00,73.8,68.3,29.94,SSW,203,4.0,4.3,83,0.00,,,0.00,WUHU216HW,2013-09-21 15:03:00,
2013-09-21 11:08:00,74.5,68.8,29.94,South,180,1.1,4.3,82,0.00,,,0.00,WUHU216HW,2013-09-21 15:08:00,
2013-09-21 11:13:00,74.7,69.0,29.93,South,180,2.5,4.0,82,0.00,,,0.00,WUHU216HW,2013-09-21 15:13:00,
2013-09-21 11:18:00,75.4,69.3,29.93,South,180,3.4,4.7,81,0.00,,,0.00,WUHU216HW,2013-09-21 15:18:00,
2013-09-21 11:23:00,75.4,69.0,29.93,SSW,203,5.6,5.6,80,0.00,,,0.00,WUHU216HW,2013-09-21 15:23:00,
2013-09-21 11:28:00,75.2,68.8,29.93,South,188,2.6,5.6,80,0.00,,,0.00,WUHU216HW,2013-09-21 15:28:00,
2013-09-21 11:33:00,75.2,68.8,29.93,SSE,158,2.9,5.6,80,0.00,,,0.00,WUHU216HW,2013-09-21 15:33:00,
2013-09-21 11:38:00,75.1,68.6,29.93,SSW,203,2.0,2.9,80,0.00,,,0.00,WUHU216HW,2013-09-21 15:38:00,
2013-09-21 11:43:00,74.9,68.4,29.93,South,180,3.1,5.8,80,0.00,,,0.00,WUHU216HW,2013-09-21 15:43:00,
2013-09-21 11:48:00,74.7,68.2,29.93,SSW,203,2.7,5.8,80,0.00,,,0.00,WUHU216HW,2013-09-21 15:48:00,
2013-09-21 11:53:00,74.3,68.2,29.93,SSW,198,3.9,5.4,81,0.00,,,0.00,WUHU216HW,2013-09-21 15:53:00,
2013-09-21 11:59:00,74.5,68.4,29.92,South,180,5.4,5.4,81,0.00,,,0.00,WUHU216HW,2013-09-21 15:59:00,
2013-09-21 12:04:00,74.5,68.4,29.92,SW,225,1.8,5.4,81,0.00,,,0.00,WUHU216HW,2013-09-21 16:04:00,
2013-09-21 12:09:00,74.9,68.8,29.92,SW,225,3.1,5.4,81,0.00,,,0.00,WUHU216HW,2013-09-21 16:09:00,
2013-09-21 12:14:00,75.1,69.0,29.92,SW,225,5.4,5.4,81,0.00,,,0.00,WUHU216HW,2013-09-21 16:14:00,
2013-09-21 12:19:00,75.1,69.0,29.92,SSE,158,4.7,5.4,81,0.00,,,0.00,WUHU216HW,2013-09-21 16:19:00,
2013-09-21 12:24:00,75.1,69.0,29.92,South,187,2.4,5.4,81,0.00,,,0.00,WUHU216HW,2013-09-21 16:24:00,
2013-09-21 12:29:00,75.2,69.1,29.92,South,183,4.3,4.7,81,0.00,,,0.00,WUHU216HW,2013-09-21 16:29:00,
2013-09-21 12:34:00,75.2,69.1,29.91,South,188,2.9,4.3,81,0.00,,,0.00,WUHU216HW,2013-09-21 16:34:00,
2013-09-21 12:39:00,75.2,69.1,29.91,SW,225,3.4,5.4,81,0.00,,,0.00,WUHU216HW,2013-09-21 16:39:00,
2013-09-21 12:44:00,74.9,68.8,29.91,SE,135,2.7,5.4,81,0.00,,,0.00,WUHU216HW,2013-09-21 16:44:00,
2013-09-21 12:49:00,74.9,68.8,29.91,SSW,197,5.3,6.3,81,0.00,,,0.00,WUHU216HW,2013-09-21 16:49:00,
2013-09-21 12:54:00,74.9,68.8,29.91,South,178,2.6,6.3,81,0.00,,,0.00,WUHU216HW,2013-09-21 16:54:00,
2013-09-21 12:59:00,75.1,69.0,29.91,SW,225,1.6,3.6,81,0.00,,,0.00,WUHU216HW,2013-09-21 16:59:00,
2013-09-21 13:04:00,75.6,69.4,29.91,SW,225,2.5,2.5,81,0.00,,,0.00,WUHU216HW,2013-09-21 17:04:00,
2013-09-21 13:10:00,75.8,69.6,29.90,South,180,6.3,6.3,81,0.00,,,0.00,WUHU216HW,2013-09-21 17:10:00,
2013-09-21 13:15:00,75.6,69.4,29.90,SE,135,3.6,6.3,81,0.00,,,0.00,WUHU216HW,2013-09-21 17:15:00,
2013-09-21 13:20:00,75.8,69.6,29.90,SE,135,5.4,6.3,81,0.00,,,0.00,WUHU216HW,2013-09-21 17:20:00,
2013-09-21 13:25:00,76.0,69.8,29.90,SW,225,4.0,7.4,81,0.00,,,0.00,WUHU216HW,2013-09-21 17:25:00,
2013-09-21 13:30:00,76.0,69.8,29.89,South,182,3.3,7.4,81,0.00,,,0.00,WUHU216HW,2013-09-21 17:30:00,
2013-09-21 13:35:00,76.0,69.8,29.89,SW,222,3.8,5.8,81,0.00,,,0.00,WUHU216HW,2013-09-21 17:35:00,
2013-09-21 13:40:00,76.0,69.8,29.89,SW,233,1.9,5.8,81,0.00,,,0.00,WUHU216HW,2013-09-21 17:40:00,
2013-09-21 13:45:00,75.8,69.6,29.89,SSW,203,2.5,3.4,81,0.00,,,0.00,WUHU216HW,2013-09-21 17:45:00,
2013-09-21 13:50:00,75.6,69.4,29.88,SSW,203,1.8,2.5,81,0.01,,,0.01,WUHU216HW,2013-09-21 17:50:00,
2013-09-21 13:55:00,75.6,69.4,29.88,SSW,203,2.7,2.7,81,0.01,,,0.01,WUHU216HW,2013-09-21 17:55:00,
2013-09-21 14:00:00,75.6,69.4,29.87,WSW,248,2.7,3.4,81,0.01,,,0.01,WUHU216HW,2013-09-21 18:00:00,
2013-09-21 14:05:00,75.6,69.4,29.87,SSW,203,3.8,5.4,81,0.01,,,0.01,WUHU216HW,2013-09-21 18:05:00,
2013-09-21 14:10:00,75.8,69.6,29.86,South,180,7.8,7.8,81,0.01,,,0.01,WUHU216HW,2013-09-21 18:10:00,
2013-09-21 14:16:00,76.1,69.9,29.86,South,180,4.0,7.8,81,0.01,,,0.01,WUHU216HW,2013-09-21 18:16:00,
2013-09-21 14:21:00,76.1,69.9,29.86,SSE,158,4.0,7.2,81,0.01,,,0.01,WUHU216HW,2013-09-21 18:21:00,
2013-09-21 14:26:00,76.0,69.4,29.86,SSW,203,4.5,7.2,80,0.01,,,0.01,WUHU216HW,2013-09-21 18:26:00,
2013-09-21 14:31:00,75.6,69.1,29.86,South,176,4.6,6.9,80,0.01,,,0.01,WUHU216HW,2013-09-21 18:31:00,
2013-09-21 14:36:00,75.2,69.1,29.86,SSE,158,6.5,6.9,81,0.01,,,0.01,WUHU216HW,2013-09-21 18:36:00,
2013-09-21 14:41:00,75.1,69.0,29.86,WSW,248,4.5,6.9,81,0.01,,,0.01,WUHU216HW,2013-09-21 18:41:00,
2013-09-21 14:46:00,74.9,68.8,29.85,SW,225,3.1,6.9,81,0.01,,,0.01,WUHU216HW,2013-09-21 18:46:00,
2013-09-21 14:51:00,74.7,68.6,29.85,South,186,4.1,4.7,81,0.00,,,0.01,WUHU216HW,2013-09-21 18:51:00,
2013-09-21 14:56:00,74.7,69.0,29.85,South,189,2.1,4.7,82,0.00,,,0.01,WUHU216HW,2013-09-21 18:56:00,
2013-09-21 15:01:00,74.5,68.8,29.85,SSE,158,6.0,6.0,82,0.00,,,0.01,WUHU216HW,2013-09-21 19:01:00,
2013-09-21 15:06:00,74.5,68.8,29.84,South,180,2.9,6.0,82,0.00,,,0.01,WUHU216HW,2013-09-21 19:06:00,
2013-09-21 15:11:00,74.5,69.0,29.84,South,180,5.6,6.0,83,0.00,,,0.01,WUHU216HW,2013-09-21 19:11:00,
2013-09-21 15:16:00,74.5,69.0,29.84,South,180,3.8,5.6,83,0.00,,,0.01,WUHU216HW,2013-09-21 19:16:00,
2013-09-21 15:21:00,74.5,69.0,29.84,SSW,199,3.0,5.6,83,0.01,,,0.02,WUHU216HW,2013-09-21 19:21:00,
2013-09-21 15:27:00,74.7,69.2,29.84,South,180,1.4,3.8,83,0.01,,,0.02,WUHU216HW,2013-09-21 19:27:00,
2013-09-21 15:32:00,74.7,69.2,29.84,South,180,3.4,4.0,83,0.01,,,0.02,WUHU216HW,2013-09-21 19:32:00,
2013-09-21 15:37:00,74.5,69.0,29.84,SW,225,4.0,4.0,83,0.02,,,0.03,WUHU216HW,2013-09-21 19:37:00,
2013-09-21 15:42:00,74.5,69.4,29.84,SSE,158,3.4,5.6,84,0.02,,,0.03,WUHU216HW,2013-09-21 19:42:00,
2013-09-21 15:47:00,74.5,69.4,29.83,SE,135,4.7,5.6,84,0.02,,,0.03,WUHU216HW,2013-09-21 19:47:00,
2013-09-21 15:52:00,74.5,69.8,29.83,South,180,2.5,4.7,85,0.02,,,0.03,WUHU216HW,2013-09-21 19:52:00,
2013-09-21 15:57:00,74.5,69.8,29.83,SSE,158,5.6,5.6,85,0.03,,,0.04,WUHU216HW,2013-09-21 19:57:00,
2013-09-21 16:02:00,74.5,69.8,29.83,SSE,168,4.2,5.6,85,0.03,,,0.04,WUHU216HW,2013-09-21 20:02:00,
2013-09-21 16:07:00,74.5,69.8,29.83,South,180,4.7,5.6,85,0.03,,,0.04,WUHU216HW,2013-09-21 20:07:00,
2013-09-21 16:12:00,74.2,69.4,29.83,SW,218,2.3,4.7,85,0.04,,,0.05,WUHU216HW,2013-09-21 20:12:00,
2013-09-21 16:17:00,74.0,69.2,29.82,SW,225,3.1,4.7,85,0.04,,,0.05,WUHU216HW,2013-09-21 20:17:00,
2013-09-21 16:22:00,73.8,69.0,29.82,SSW,203,4.3,4.7,85,0.03,,,0.05,WUHU216HW,2013-09-21 20:22:00,
2013-09-21 16:28:00,73.6,69.2,29.82,WSW,246,2.6,4.7,86,0.03,,,0.05,WUHU216HW,2013-09-21 20:28:00,
2013-09-21 16:33:00,73.4,69.0,29.82,South,180,3.1,4.7,86,0.03,,,0.05,WUHU216HW,2013-09-21 20:33:00,
2013-09-21 16:38:00,73.4,69.0,29.82,SSE,158,4.5,4.5,86,0.03,,,0.06,WUHU216HW,2013-09-21 20:38:00,
2013-09-21 16:43:00,73.3,68.9,29.81,SSE,158,2.0,4.5,86,0.03,,,0.06,WUHU216HW,2013-09-21 20:43:00,
2013-09-21 16:48:00,73.1,68.7,29.81,South,180,3.8,4.5,86,0.03,,,0.06,WUHU216HW,2013-09-21 20:48:00,
2013-09-21 16:53:00,73.1,69.0,29.81,SSW,203,5.1,6.3,87,0.03,,,0.07,WUHU216HW,2013-09-21 20:53:00,
2013-09-21 16:58:00,73.1,68.7,29.80,SSE,158,3.1,6.3,86,0.03,,,0.07,WUHU216HW,2013-09-21 20:58:00,
2013-09-21 17:03:00,72.9,68.5,29.80,SSE,161,3.2,4.9,86,0.03,,,0.07,WUHU216HW,2013-09-21 21:03:00,
2013-09-21 17:08:00,72.7,68.3,29.80,SSE,158,4.9,5.6,86,0.03,,,0.07,WUHU216HW,2013-09-21 21:08:00,
2013-09-21 17:13:00,72.5,68.1,29.80,SSE,158,2.7,5.6,86,0.02,,,0.07,WUHU216HW,2013-09-21 21:13:00,
2013-09-21 17:18:00,72.4,68.0,29.80,SSE,160,1.7,4.9,86,0.03,,,0.08,WUHU216HW,2013-09-21 21:18:00,
2013-09-21 17:23:00,72.4,68.0,29.80,SE,146,1.5,2.9,86,0.03,,,0.08,WUHU216HW,2013-09-21 21:23:00,
2013-09-21 17:29:00,72.4,68.3,29.80,SSW,203,1.6,2.9,87,0.04,,,0.09,WUHU216HW,2013-09-21 21:29:00,
2013-09-21 17:34:00,72.0,68.0,29.80,SSW,203,1.3,2.2,87,0.06,,,0.11,WUHU216HW,2013-09-21 21:34:00,
2013-09-21 17:39:00,72.0,68.0,29.80,SE,135,4.7,4.7,87,0.06,,,0.12,WUHU216HW,2013-09-21 21:39:00,
2013-09-21 17:44:00,71.6,67.6,29.80,South,180,6.3,6.3,87,0.07,,,0.13,WUHU216HW,2013-09-21 21:44:00,
2013-09-21 17:49:00,71.6,67.6,29.80,SSE,158,1.9,6.3,87,0.09,,,0.15,WUHU216HW,2013-09-21 21:49:00,
2013-09-21 17:54:00,71.3,67.5,29.79,SE,139,0.5,6.3,88,0.10,,,0.17,WUHU216HW,2013-09-21 21:54:00,
2013-09-21 17:59:00,71.1,67.3,29.79,North,0,0.9,1.8,88,0.13,,,0.20,WUHU216HW,2013-09-21 21:59:00,
2013-09-21 18:04:00,70.9,67.1,29.79,NE,45,0.0,1.1,88,0.16,,,0.23,WUHU216HW,2013-09-21 22:04:00,
2013-09-21 18:09:00,70.9,67.1,29.78,NNE,23,1.6,1.8,88,0.18,,,0.25,WUHU216HW,2013-09-21 22:09:00,
2013-09-21 18:14:00,70.9,67.5,29.77,NNE,23,1.1,1.8,89,0.22,,,0.29,WUHU216HW,2013-09-21 22:14:00,
2013-09-21 18:20:00,70.7,67.7,29.76,NE,45,3.6,3.6,90,0.27,,,0.35,WUHU216HW,2013-09-21 22:20:00,
2013-09-21 18:25:00,70.7,67.7,29.76,West,270,0.9,3.6,90,0.32,,,0.40,WUHU216HW,2013-09-21 22:25:00,
2013-09-21 18:30:00,70.4,67.3,29.76,North,3,2.1,3.6,90,0.35,,,0.44,WUHU216HW,2013-09-21 22:30:00,
2013-09-21 18:35:00,70.4,67.3,29.78,SW,225,7.6,7.6,90,0.38,,,0.49,WUHU216HW,2013-09-21 22:35:00,
2013-09-21 18:40:00,70.0,67.0,29.78,NNW,338,1.1,7.6,90,0.64,,,0.76,WUHU216HW,2013-09-21 22:40:00,
2013-09-21 18:45:00,69.5,66.4,29.78,NNW,338,0.9,7.6,90,0.72,,,0.86,WUHU216HW,2013-09-21 22:45:00,
2013-09-21 18:50:00,69.3,66.2,29.78,WSW,240,1.9,3.1,90,0.78,,,0.93,WUHU216HW,2013-09-21 22:50:00,
2013-09-21 18:55:00,69.1,66.1,29.78,NNE,23,1.6,3.1,90,0.77,,,0.94,WUHU216HW,2013-09-21 22:55:00,
2013-09-21 19:00:00,69.1,66.1,29.78,NNE,23,1.6,2.0,90,0.77,,,0.94,WUHU216HW,2013-09-21 23:00:00,
2013-09-21 19:41:00,66.8,64.0,29.78,West,270,1.8,1.8,91,0.71,,,1.54,WUHU216HW,2013-09-21 23:41:00,
2013-09-21 19:46:00,66.6,63.8,29.77,NNW,338,2.2,2.2,91,0.73,,,1.59,WUHU216HW,2013-09-21 23:46:00,
2013-09-21 19:51:00,66.1,63.4,29.77,North,0,5.4,5.4,91,0.91,,,1.85,WUHU216HW,2013-09-21 23:51:00,
2013-09-21 19:56:00,65.9,63.2,29.77,NNE,23,2.9,5.4,91,0.33,,,1.87,WUHU216HW,2013-09-21 23:56:00,
2013-09-21 20:02:00,65.5,62.8,29.77,NE,45,6.9,7.8,91,0.46,,,2.00,WUHU216HW,2013-09-22 00:02:00,
2013-09-21 20:07:00,65.3,62.6,29.76,NNE,23,4.7,7.8,91,0.50,,,2.04,WUHU216HW,2013-09-22 00:07:00,
2013-09-21 20:12:00,65.2,62.5,29.76,North,0,6.3,6.9,91,0.60,,,2.14,WUHU216HW,2013-09-22 00:12:00,
2013-09-21 20:17:00,65.2,62.5,29.77,ESE,113,5.1,6.9,91,0.68,,,2.22,WUHU216HW,2013-09-22 00:17:00,
2013-09-21 20:22:00,65.2,62.5,29.77,NE,41,2.2,6.3,91,0.77,,,2.31,WUHU216HW,2013-09-22 00:22:00,
2013-09-21 20:27:00,65.0,62.7,29.77,East,90,3.1,6.9,92,0.79,,,2.33,WUHU216HW,2013-09-22 00:27:00,
2013-09-21 20:32:00,65.0,62.7,29.76,NE,45,7.8,8.5,92,0.79,,,2.33,WUHU216HW,2013-09-22 00:32:00,
2013-09-21 20:37:00,65.0,62.7,29.76,NW,315,2.9,8.5,92,0.82,,,2.36,WUHU216HW,2013-09-22 00:37:00,
2013-09-21 20:42:00,64.8,62.5,29.76,NW,315,9.4,9.4,92,0.88,,,2.42,WUHU216HW,2013-09-22 00:42:00,
2013-09-21 20:47:00,64.8,62.5,29.76,ENE,59,7.3,9.4,92,0.68,,,2.45,WUHU216HW,2013-09-22 00:47:00,
2013-09-21 20:52:00,64.6,62.3,29.76,SE,125,2.5,7.8,92,0.60,,,2.46,WUHU216HW,2013-09-22 00:52:00,
2013-09-21 20:57:00,64.6,62.3,29.76,NNE,23,7.6,7.6,92,0.63,,,2.50,WUHU216HW,2013-09-22 00:57:00,
2013-09-21 21:03:00,64.6,62.3,29.76,NNE,23,6.0,7.6,92,0.49,,,2.52,WUHU216HW,2013-09-22 01:03:00,
2013-09-21 21:08:00,64.6,62.3,29.76,NW,315,6.3,7.6,92,0.44,,,2.56,WUHU216HW,2013-09-22 01:08:00,
2013-09-21 21:13:00,64.6,62.3,29.77,NNE,23,5.4,6.3,92,0.46,,,2.60,WUHU216HW,2013-09-22 01:13:00,
2013-09-21 21:18:00,64.4,62.1,29.77,NNE,19,4.6,6.3,92,0.43,,,2.65,WUHU216HW,2013-09-22 01:18:00,
2013-09-21 21:23:00,64.4,62.1,29.77,NNE,23,2.2,5.4,92,0.35,,,2.66,WUHU216HW,2013-09-22 01:23:00,
2013-09-21 21:28:00,64.4,62.1,29.76,North,0,5.1,5.6,92,0.42,,,2.75,WUHU216HW,2013-09-22 01:28:00,
2013-09-21 21:33:00,64.4,62.1,29.77,ENE,68,2.5,5.1,92,0.44,,,2.77,WUHU216HW,2013-09-22 01:33:00,
2013-09-21 21:38:00,64.4,62.1,29.77,NNE,23,6.7,6.7,92,0.46,,,2.82,WUHU216HW,2013-09-22 01:38:00,
2013-09-21 21:43:00,64.3,61.9,29.78,West,276,2.2,6.7,92,0.43,,,2.85,WUHU216HW,2013-09-22 01:43:00,
2013-09-21 21:48:00,64.3,61.9,29.77,NNW,338,5.4,6.7,92,0.41,,,2.86,WUHU216HW,2013-09-22 01:48:00,
2013-09-21 21:53:00,64.1,61.7,29.78,NNE,23,1.6,8.1,92,0.40,,,2.86,WUHU216HW,2013-09-22 01:53:00,
2013-09-21 21:59:00,64.1,61.7,29.77,North,0,6.3,8.1,92,0.37,,,2.87,WUHU216HW,2013-09-22 01:59:00,
2013-09-21 22:04:00,64.1,61.7,29.78,NNE,23,8.7,8.7,92,0.35,,,2.87,WUHU216HW,2013-09-22 02:04:00,
2013-09-21 22:09:00,63.9,61.6,29.79,NNW,332,7.0,8.7,92,0.31,,,2.87,WUHU216HW,2013-09-22 02:09:00,
2013-09-21 22:14:00,63.9,61.6,29.79,NNE,23,1.0,8.7,92,0.27,,,2.87,WUHU216HW,2013-09-22 02:14:00,
2013-09-21 22:19:00,63.9,61.3,29.79,NE,45,3.1,5.8,91,0.21,,,2.87,WUHU216HW,2013-09-22 02:19:00,
2013-09-21 22:24:00,63.9,61.3,29.79,SW,225,2.5,4.3,91,0.17,,,2.87,WUHU216HW,2013-09-22 02:24:00,
2013-09-21 22:29:00,63.9,61.3,29.79,WSW,248,2.2,3.4,91,0.10,,,2.87,WUHU216HW,2013-09-22 02:29:00,
2013-09-21 22:34:00,63.9,61.3,29.79,NNW,338,1.6,3.4,91,0.08,,,2.87,WUHU216HW,2013-09-22 02:34:00,
2013-09-21 22:39:00,63.9,61.3,29.79,NW,315,2.9,4.0,91,0.04,,,2.87,WUHU216HW,2013-09-22 02:39:00,
2013-09-21 22:45:00,63.9,61.3,29.79,NE,37,2.2,4.0,91,0.02,,,2.87,WUHU216HW,2013-09-22 02:45:00,
2013-09-21 22:50:00,63.9,61.3,29.79,NNE,23,5.8,5.8,91,0.01,,,2.87,WUHU216HW,2013-09-22 02:50:00,
2013-09-21 22:55:00,63.9,61.3,29.80,NNW,338,2.5,5.8,91,0.01,,,2.87,WUHU216HW,2013-09-22 02:55:00,
2013-09-21 23:00:00,63.9,61.3,29.81,West,270,0.4,5.8,91,0.00,,,2.87,WUHU216HW,2013-09-22 03:00:00,
2013-09-21 23:05:00,63.9,61.3,29.81,NNW,338,0.0,2.5,91,0.00,,,2.87,WUHU216HW,2013-09-22 03:05:00,
2013-09-21 23:10:00,63.9,61.3,29.81,NW,323,1.2,2.2,91,0.00,,,2.87,WUHU216HW,2013-09-22 03:10:00,
2013-09-21 23:15:00,64.1,61.5,29.81,NNW,338,1.8,2.5,91,0.00,,,2.87,WUHU216HW,2013-09-22 03:15:00,
2013-09-21 23:20:00,64.1,61.5,29.81,NNE,23,3.4,3.4,91,0.00,,,2.87,WUHU216HW,2013-09-22 03:20:00,
2013-09-21 23:25:00,64.1,61.5,29.81,WNW,293,1.2,3.4,91,0.00,,,2.87,WUHU216HW,2013-09-22 03:25:00,
2013-09-21 23:30:00,64.1,61.5,29.81,NNW,337,4.5,5.4,91,0.00,,,2.87,WUHU216HW,2013-09-22 03:30:00,
2013-09-21 23:36:00,64.1,61.5,29.81,North,0,2.2,5.4,91,0.00,,,2.87,WUHU216HW,2013-09-22 03:36:00,
2013-09-21 23:41:00,64.1,61.5,29.81,NW,324,1.7,2.2,91,0.00,,,2.87,WUHU216HW,2013-09-22 03:41:00,
2013-09-21 23:46:00,64.1,61.5,29.81,WNW,293,3.1,3.1,91,0.00,,,2.87,WUHU216HW,2013-09-22 03:46:00,
2013-09-21 23:51:00,64.1,61.5,29.81,WNW,283,1.1,3.1,91,0.00,,,2.87,WUHU216HW,2013-09-22 03:51:00,
2013-09-21 23:56:00,64.1,61.5,29.81,East,98,1.2,3.1,91,0.00,,,0.00,WUHU216HW,2013-09-22 03:56:00,